Left ArrowRight Arrow

Hourly Observations for September 9, 2018

Temp ( °F °C ) Dew Point ( °F °C ) Humidity (%) Winds ( mph kmh ) Pressure ( in mb ) Visibility ( mi km ) Precip ( " mm )
12:53 am 00:53 Clear 54 12.2 42 5.6 64 64 undefined N/A 29.91 1013 10 16 0.00 0.00
1:53 am 01:53 Clear 51 10.6 40 4.4 66 66 undefined N/A 29.89 1012 10 16 0.00 0.00
2:53 am 02:53 Clear 53 11.7 37 2.8 55 55 WSW 8 13 29.88 1012 10 16 0.00 0.00
3:53 am 03:53 Clear 53 11.7 39 3.9 59 59 Calm 29.84 1011 10 16 0.00 0.00
4:53 am 04:53 Clear 50 10 36 2.2 59 59 Calm 29.85 1011 10 16 0.00 0.00
5:53 am 05:53 Clear 45 7.2 39 3.9 80 80 Calm 29.91 1013 10 16 0.00 0.00
6:53 am 06:53 Sunny 46 7.8 38 3.3 73 73 VRB 3 6 29.92 1013 10 16 0.00 0.00
7:53 am 07:53 Sunny 47 8.3 37 2.8 69 69 NW 6 9 29.93 1014 10 16 0.00 0.00
8:53 am 08:53 Sunny 58 14.4 37 2.8 46 46 W 10 17 29.93 1013 9 14 0.00 0.00
9:53 am 09:53 Sunny 61 16.1 43 6.1 52 52 SE 6 9 29.93 1014 10 16 0.00 0.00
10:53 am 10:53 Sunny 69 20.6 43 6.1 39 39 SSE 7 11 29.93 1013 10 16 0.00 0.00
11:53 am 11:53 Sunny 72 22.2 40 4.4 31 31 VRB 6 9 29.90 1012 10 16 0.00 0.00
12:53 pm 12:53 Sunny 75 23.9 34 1.1 22 22 Calm 29.88 1012 8 13 0.00 0.00
1:53 pm 13:53 Sunny 77 25 29 -1.7 17 17 E 6 9 29.89 1012 8 13 0.00 0.00
2:53 pm 14:53 Sunny 78 25.6 34 1.1 20 20 NNE 9 15 29.86 1011 9 14 0.00 0.00
3:53 pm 15:53 Sunny 79 26.1 31 -0.6 17 17 ENE 9 15 29.84 1011 9 14 0.00 0.00
4:53 pm 16:53 Sunny 80 26.7 31 -0.6 17 17 ESE 5 7 29.83 1010 10 16 0.00 0.00
5:53 pm 17:53 Sunny 79 26.1 33 0.6 19 19 SE 5 7 29.85 1011 10 16 0.00 0.00
6:53 pm 18:53 Sunny 77 25 33 0.6 20 20 N 5 7 29.85 1011 10 16 0.00 0.00
7:53 pm 19:53 Clear 73 22.8 32 0 22 22 S 3 6 29.88 1012 10 16 0.00 0.00
8:53 pm 20:53 Clear 67 19.4 30 -1.1 25 25 W 8 13 29.89 1012 10 16 0.00 0.00
9:53 pm 21:53 Clear 64 17.8 27 -2.8 25 25 W 13 20 29.91 1013 10 16 0.00 0.00
10:53 pm 22:53 Clear 63 17.2 26 -3.3 25 25 WSW 12 19 29.90 1012 10 16 0.00 0.00
11:53 pm 23:53 Clear 63 17.2 24 -4.4 23 23 undefined N/A 29.89 1012 10 16 0.00 0.00

Powered by Vaisala Xweather